Hill City, KS

3:20 PM CDT on July 21, 2017 (GMT -0500)
Hill City Municipal

Weather History for KHLC - April, 2013

Change the Weather History Date:

Wednesday, April 17, 2013

  Actual Average Record
Temperature  
Mean Temperature 36 °F 52 °F  
Max Temperature 41 °F 66 °F 94 °F (1948)
Min Temperature 30 °F 38 °F 17 °F (1907)
Degree Days  
Heating Degree Days 30    
Moisture  
Dew Point 33 °F    
Average Humidity 89    
Maximum Humidity 100    
Minimum Humidity 57    
Precipitation  
Precipitation 0.09 in 0.07 in 2.08 in (2009)
Month to date precipitation 0.13 1.04  
Year to date precipitation 2.11 3.64  
Sea Level Pressure  
Sea Level Pressure 29.95 in    
Wind  
Wind Speed 14 mph (NNE)    
Max Wind Speed 29 mph    
Max Gust Speed 39 mph    
Visibility 6 miles    
Events Rain , Snow , Thunderstorm    
T = Trace of Precipitation, MM = Missing Value Source: NWS Daily Summary

Daily Weather History Graph

Daily Weather History Graph

Search for Another Location

Airport or City:

Trip Planner

Search our weather history database for the weather conditions in past years. The results will help you decide how hot, cold, wet, or windy it might be!

Date:

Astronomy

Apr. 17, 2013 Rise Set
Actual Time 6:58 AM CDT 8:19 PM CDT
Civil Twilight 6:31 AM CDT 8:47 PM CDT
Nautical Twilight 5:57 AM CDT 9:20 PM CDT
Astronomical Twilight 5:22 AM CDT 9:56 PM CDT
Moon 12:15 PM CDT (4/17) 1:57 AM CDT (4/17)
Length of Visible Light 14h 16m
Length of Day
13h 20m
Waxing Crescent, 42% of the Moon is Illuminated
Apr 17
Waxing Crescent
Apr 18
First Quarter
Apr 25
Full
May 2
Last Quarter
May 9
New

Hourly Weather History & Observations

Time (CDT) Temp. Windchill Dew Point Humidity Pressure Visibility Wind Dir Wind Speed Gust Speed Precip Events Conditions
12:53 AM 41.0 °F 34.7 °F 27.0 °F 57% 30.06 in 10.0 mi ENE 10.4 mph - N/A   Overcast
1:53 AM 41.0 °F 34.3 °F 28.0 °F 60% 30.01 in 10.0 mi ENE 11.5 mph - N/A   Overcast
2:06 AM 41.0 °F 34.3 °F 28.4 °F 61% 29.98 in 10.0 mi NE 11.5 mph - N/A   Overcast
2:37 AM 39.2 °F 32.5 °F 30.2 °F 70% 29.99 in 5.0 mi ENE 10.4 mph - 0.03 in Rain , Thunderstorm Thunderstorms and Rain
2:53 AM 37.9 °F 32.7 °F 33.1 °F 83% 30.03 in 10.0 mi East 6.9 mph - 0.04 in Rain Light Rain
3:53 AM 37.9 °F 33.5 °F 34.0 °F 86% 30.01 in 10.0 mi NE 5.8 mph - 0.00 in   Overcast
4:53 AM 37.9 °F 32.1 °F 35.1 °F 89% 30.00 in 9.0 mi NNE 8.1 mph - N/A   Overcast
5:53 AM 37.9 °F 31.5 °F 35.1 °F 89% 29.99 in 10.0 mi NNE 9.2 mph - N/A   Overcast
6:19 AM 37.4 °F 29.8 °F 35.6 °F 93% 29.96 in 5.0 mi NNE 11.5 mph - N/A   Overcast
6:53 AM 37.0 °F 30.4 °F 36.0 °F 96% 29.99 in 4.0 mi NNE 9.2 mph - N/A   Overcast
7:04 AM 37.4 °F 30.8 °F 35.6 °F 93% 29.96 in 5.0 mi NNE 9.2 mph - N/A   Overcast
7:14 AM 37.4 °F 30.8 °F 35.6 °F 93% 29.96 in 5.0 mi NNE 9.2 mph - N/A   Overcast
7:35 AM 37.4 °F 30.3 °F 35.6 °F 93% 29.96 in 5.0 mi NNE 10.4 mph - N/A   Overcast
7:53 AM 37.0 °F 29.8 °F 36.0 °F 96% 29.99 in 5.0 mi NNE 10.4 mph - N/A   Overcast
8:40 AM 37.4 °F 29.3 °F 35.6 °F 93% 29.96 in 2.5 mi NNE 12.7 mph - N/A   Overcast
9:53 AM 37.9 °F 29.6 °F 36.0 °F 93% 29.99 in 6.0 mi North 13.8 mph 21.9 mph N/A   Overcast
10:53 AM 35.1 °F 24.5 °F 34.0 °F 96% 29.98 in 5.0 mi NNE 18.4 mph - N/A   Overcast
11:53 AM 36.0 °F 26.0 °F 34.0 °F 93% 29.97 in 3.0 mi NNE 17.3 mph 25.3 mph N/A   Overcast
12:53 PM 36.0 °F 26.0 °F 35.1 °F 97% 29.97 in 5.0 mi NNE 17.3 mph 24.2 mph N/A   Overcast
1:53 PM 37.0 °F 27.4 °F 35.1 °F 93% 29.91 in 9.0 mi NNE 17.3 mph - N/A   Overcast
2:53 PM 37.0 °F 27.0 °F 35.1 °F 93% 29.91 in 8.0 mi NNE 18.4 mph 24.2 mph N/A   Overcast
3:53 PM 37.0 °F 27.4 °F 34.0 °F 89% 29.91 in 10.0 mi North 17.3 mph - N/A   Overcast
4:35 PM 37.4 °F 27.8 °F 33.8 °F 87% 29.90 in 10.0 mi North 17.3 mph - N/A   Overcast
4:53 PM 37.0 °F 26.7 °F 34.0 °F 89% 29.92 in 8.0 mi North 19.6 mph 25.3 mph N/A   Overcast
5:53 PM 37.0 °F 29.3 °F 34.0 °F 89% 29.91 in 6.0 mi North 11.5 mph 23.0 mph 0.00 in   Overcast
6:02 PM 35.6 °F 25.9 °F 35.6 °F 100% 29.87 in 4.0 mi North 16.1 mph - 0.00 in   Overcast
6:24 PM 37.4 °F 27.8 °F 35.6 °F 93% 29.85 in 8.0 mi North 17.3 mph 26.5 mph 0.00 in   Overcast
6:53 PM 37.0 °F 26.7 °F 34.0 °F 89% 29.92 in 8.0 mi North 19.6 mph 26.5 mph 0.00 in   Overcast
7:50 PM 35.6 °F 24.2 °F 33.8 °F 93% 29.89 in 6.0 mi North 21.9 mph 28.8 mph 0.00 in   Overcast
7:53 PM 36.0 °F 24.7 °F 33.1 °F 89% 29.93 in 7.0 mi North 21.9 mph 29.9 mph 0.00 in   Overcast
8:26 PM 35.6 °F 25.5 °F 32.0 °F 87% 29.89 in 9.0 mi North 17.3 mph 28.8 mph N/A   Overcast
8:53 PM 34.0 °F 21.5 °F 32.0 °F 92% 29.96 in 4.0 mi North 24.2 mph 32.2 mph 0.00 in Snow Light Snow
9:12 PM 33.8 °F 20.5 °F 32.0 °F 93% 29.92 in 4.0 mi North 27.6 mph 35.7 mph 0.00 in Snow Light Snow
9:19 PM 33.8 °F 21.6 °F 30.2 °F 87% 29.93 in 4.0 mi North 23.0 mph 35.7 mph 0.00 in   Overcast
9:53 PM 33.1 °F 19.3 °F 30.9 °F 92% 29.91 in 6.0 mi North 28.8 mph 39.1 mph 0.00 in Rain Light Freezing Rain
10:34 PM 32.0 °F 18.6 °F 30.2 °F 93% 29.92 in 6.0 mi North 25.3 mph 35.7 mph 0.01 in Snow Light Snow
10:53 PM 32.0 °F 19.5 °F 28.9 °F 88% 29.96 in 3.0 mi North 21.9 mph 33.4 mph 0.01 in Snow Light Snow
11:05 PM 32.0 °F 21.2 °F 30.2 °F 93% 29.96 in 2.5 mi NNW 16.1 mph 35.7 mph N/A Snow Light Snow
11:12 PM 32.0 °F 19.8 °F 30.2 °F 93% 29.94 in 4.0 mi North 20.7 mph 27.6 mph 0.01 in Snow Light Snow
11:20 PM 30.2 °F 16.8 °F 28.4 °F 93% 29.93 in 2.5 mi North 23.0 mph 31.1 mph 0.01 in Snow Light Snow
11:26 PM 30.2 °F 17.4 °F 28.4 °F 93% 29.92 in 1.8 mi North 20.7 mph 31.1 mph 0.02 in Snow Light Snow
11:38 PM 30.2 °F 17.1 °F 28.4 °F 93% 29.92 in 1.2 mi North 21.9 mph 33.4 mph 0.02 in Snow Light Snow
11:53 PM 30.9 °F 18.1 °F 28.9 °F 92% 29.96 in 1.0 mi North 21.9 mph 31.1 mph 0.02 in Snow Light Snow